Regional Weather Roundup
Issued by NWS

Home | Current Version | Previous Version | Text Only | Print | Product List | Glossary On
Versions: 1 2 3 4 5 6 7 8 9 10 11 12 13 14 15 16 17 18 19 20 21 22 23 24 25 26 27 28 29 30 31 32 33 34 35 36 37 38 39 40 41 42 43 44 45 46 47 48 49 50
000
ASUS45 KABQ 301510
RWRNM
NEW MEXICO REGIONAL WEATHER ROUNDUP
NATIONAL WEATHER SERVICE ALBUQUERQUE NM
900 AM MDT MON MAY 30 2016

NOTE: "FAIR" MEANS FEW OR NO CLOUDS BELOW 12,000 FEET AGL WITH NO
       SIGNIFICANT WEATHER OR OBSTRUCTIONS TO VISION.

      THIS PRODUCT IS RELEASED AS TWO VERSIONS.  ONE VERSION NEAR
      THE TOP OF THE HOUR CONTAINING PRELIMINARY DATA FROM ALBUQUERQUE
      AND OTHER STATIONS.  A FINAL VERSION WITH ADDITIONAL DATA IS
      ISSUED ABOUT 10 MINUTES AFTER THE HOUR.

NMZ501-503-504-510>518-301600-
NORTHWEST PLATEAU/NORTHCENTRAL MOUNTAINS

CITY           SKY/WX    TMP DP  RH WIND       PRES   REMARKS
FARMINGTON     FAIR      61  28  28 E13       30.13S
LOS ALAMOS     FAIR      60  41  49 CALM      30.24S
SANTA FE       FAIR      62  42  47 SE5       30.19S
TAOS           FAIR      57  34  41 CALM      30.24S
ANGEL FIRE     FAIR      48  42  78 N3        30.29F

$$
NMZ402-403-502-505>509-301600-
WESTCENTRAL MOUNTAINS/SOUTHWEST MOUNTAINS

CITY           SKY/WX    TMP DP  RH WIND       PRES   REMARKS
GALLUP         FAIR      61  23  23 CALM      30.20S
GRANTS         FAIR      59  12  16 CALM      30.22S
SILVER CITY      N/A     72  27  18 S6        30.17S

$$
NMZ407-409-411-412-301600-
SOUTHERN DESERTS

CITY           SKY/WX    TMP DP  RH WIND       PRES   REMARKS
LORDSBURG      FAIR      73  36  25 E5        30.08F
DEMING         FAIR      75  35  23 VRB3      30.09F
LAS CRUCES     FAIR      77  32  19 NE5       30.11S
HOLLOMAN AFB   FAIR      79  40  24 SE9       30.07S
ALAMOGORDO     FAIR      77  39  25 S8        30.10S
T OR C         FAIR      73  37  27 SW3       30.11S

$$
NMZ519>523-301600-
CENTRAL VALLEYS/CENTRAL HIGHLANDS

CITY           SKY/WX    TMP DP  RH WIND       PRES   REMARKS
ALBUQUERQUE    PTSUNNY   63  43  48 N6        30.15R
DOUBLE EAGLE   PTSUNNY   64  45  48 NE9       30.18
MORIARTY ARPT  FAIR      58  46  63 SE8       30.21F
CLINES CORNERS PTSUNNY   60  44  55 S7        30.21F
BELEN          FAIR      65  38  36 CALM      30.15S
SOCORRO        FAIR      68  31  24 N3        30.13S

$$
NMZ524>526-539-540-301600-
SOUTHCENTRAL MOUNTAINS

CITY           SKY/WX    TMP DP  RH WIND       PRES   REMARKS
RUIDOSO          N/A     70  28  21 W12       30.26S

$$
NMZ527>531-301600-
NORTHEAST HIGHLANDS/NORTHEAST PLAINS

CITY           SKY/WX    TMP DP  RH WIND       PRES   REMARKS
LAS VEGAS      FAIR      56  45  66 SW9       30.20F
RATON          FAIR      54  46  74 S6        30.16F
CLAYTON        CLOUDY    63  51  65 S20       30.12F

$$
NMZ532>537-301600-
EASTCENTRAL PLAINS

CITY           SKY/WX    TMP DP  RH WIND       PRES   REMARKS
TUCUMCARI      CLOUDY    62  52  69 SW9       30.12F
CANNON AFB     CLOUDY    63  55  73 SW10      30.14F
CLOVIS AIRPORT FAIR      66  54  63 SW14      30.13F

$$
NMZ028-029-538-301600-
SOUTHEAST PLAINS

CITY           SKY/WX    TMP DP  RH WIND       PRES   REMARKS
ROSWELL        CLOUDY    65  52  62 SE8       30.12R
ARTESIA        CLOUDY    64  59  82 CALM      30.11S
CARLSBAD       FAIR      66  56  70 E3        30.08F
HOBBS          CLOUDY    63  61  94 NE7       30.14S


$$




USA.gov is the U.S. government's official web portal to all federal, state and local government web resources and services.